Year,Month,Day,Hour,Minute,Value (Times are PST for temperature in C)
2016,02,16,00,00,4.40
2016,02,16,00,01,4.40
2016,02,16,00,02,4.40
2016,02,16,00,03,4.40
2016,02,16,00,04,4.40
2016,02,16,00,05,4.40
2016,02,16,00,06,4.40
2016,02,16,00,07,4.40
2016,02,16,00,08,4.40
2016,02,16,00,09,4.40
2016,02,16,00,10,4.40
2016,02,16,00,11,4.40
2016,02,16,00,12,4.40
2016,02,16,00,13,4.40
2016,02,16,00,14,4.40
2016,02,16,00,15,4.40
2016,02,16,00,16,4.40
2016,02,16,00,17,4.50
2016,02,16,00,18,4.50
2016,02,16,00,19,4.50
2016,02,16,00,20,4.60
2016,02,16,00,21,4.60
2016,02,16,00,22,4.70
2016,02,16,00,23,4.70
2016,02,16,00,24,4.70
2016,02,16,00,25,4.70
2016,02,16,00,26,4.70
2016,02,16,00,27,4.80
2016,02,16,00,28,4.80
2016,02,16,00,29,4.80
2016,02,16,00,30,4.80
2016,02,16,00,31,4.80
2016,02,16,00,32,4.80
2016,02,16,00,33,4.80
2016,02,16,00,34,4.80
2016,02,16,00,35,4.80
2016,02,16,00,36,4.70
2016,02,16,00,37,4.70
2016,02,16,00,38,4.60
2016,02,16,00,39,4.60
2016,02,16,00,40,4.60
2016,02,16,00,41,4.60
2016,02,16,00,42,4.60
2016,02,16,00,43,4.50
2016,02,16,00,44,4.50
2016,02,16,00,45,4.50
2016,02,16,00,46,4.50
2016,02,16,00,47,4.50
2016,02,16,00,48,4.50
2016,02,16,00,49,4.50
2016,02,16,00,50,4.50
2016,02,16,00,51,4.50
2016,02,16,00,52,4.50
2016,02,16,00,53,4.50
2016,02,16,00,54,4.50
2016,02,16,00,55,4.50
2016,02,16,00,56,4.50
2016,02,16,00,57,4.50
2016,02,16,00,58,4.50
2016,02,16,00,59,4.40
2016,02,16,01,00,4.40
2016,02,16,01,01,4.40
2016,02,16,01,02,4.40
2016,02,16,01,03,4.40
2016,02,16,01,04,4.40
2016,02,16,01,05,4.40
2016,02,16,01,06,4.40
2016,02,16,01,07,4.40
2016,02,16,01,08,4.40
2016,02,16,01,09,4.40
2016,02,16,01,10,4.40
2016,02,16,01,11,4.40
2016,02,16,01,12,4.40
2016,02,16,01,13,4.40
2016,02,16,01,14,4.40
2016,02,16,01,15,4.40
2016,02,16,01,16,4.40
2016,02,16,01,17,4.40
2016,02,16,01,18,4.40
2016,02,16,01,19,4.40
2016,02,16,01,20,4.40
2016,02,16,01,21,4.40
2016,02,16,01,22,4.40
2016,02,16,01,23,4.40
2016,02,16,01,24,4.40
2016,02,16,01,25,4.40
2016,02,16,01,26,4.40
2016,02,16,01,27,4.40
2016,02,16,01,28,4.40
2016,02,16,01,29,4.40
2016,02,16,01,30,4.40
2016,02,16,01,31,4.40
2016,02,16,01,32,4.40
2016,02,16,01,33,4.40
2016,02,16,01,34,4.40
2016,02,16,01,35,4.40
2016,02,16,01,36,4.40
2016,02,16,01,37,4.40
2016,02,16,01,38,4.40
2016,02,16,01,39,4.40
2016,02,16,01,40,4.40
2016,02,16,01,41,4.40
2016,02,16,01,42,4.40
2016,02,16,01,43,4.40
2016,02,16,01,44,4.40
2016,02,16,01,45,4.40
2016,02,16,01,46,4.40
2016,02,16,01,47,4.40
2016,02,16,01,48,4.40
2016,02,16,01,49,4.40
2016,02,16,01,50,4.40
2016,02,16,01,51,4.40
2016,02,16,01,52,4.40
2016,02,16,01,53,4.40
2016,02,16,01,54,4.40
2016,02,16,01,55,4.40
2016,02,16,01,56,4.40
2016,02,16,01,57,4.40
2016,02,16,01,58,4.40
2016,02,16,01,59,4.40
2016,02,16,02,00,4.40
2016,02,16,02,01,4.40
2016,02,16,02,02,4.50
2016,02,16,02,03,4.50
2016,02,16,02,04,4.50
2016,02,16,02,05,4.50
2016,02,16,02,06,4.50
2016,02,16,02,07,4.50
2016,02,16,02,08,4.50
2016,02,16,02,09,4.50
2016,02,16,02,10,4.40
2016,02,16,02,11,4.40
2016,02,16,02,12,4.40
2016,02,16,02,13,4.40
2016,02,16,02,14,4.40
2016,02,16,02,15,4.40
2016,02,16,02,16,4.40
2016,02,16,02,17,4.40
2016,02,16,02,18,4.40
2016,02,16,02,19,4.40
2016,02,16,02,20,4.40
2016,02,16,02,21,4.40
2016,02,16,02,22,4.40
2016,02,16,02,23,4.40
2016,02,16,02,24,4.40
2016,02,16,02,25,4.40
2016,02,16,02,26,4.40
2016,02,16,02,27,4.40
2016,02,16,02,28,4.40
2016,02,16,02,29,4.40
2016,02,16,02,30,4.30
2016,02,16,02,31,4.30
2016,02,16,02,32,4.30
2016,02,16,02,33,4.30
2016,02,16,02,34,4.30
2016,02,16,02,35,4.30
2016,02,16,02,36,4.30
2016,02,16,02,37,4.30
2016,02,16,02,38,4.30
2016,02,16,02,39,4.30
2016,02,16,02,40,4.30
2016,02,16,02,41,4.30
2016,02,16,02,42,4.30
2016,02,16,02,43,4.30
2016,02,16,02,44,4.30
2016,02,16,02,45,4.30
2016,02,16,02,46,4.30
2016,02,16,02,47,4.30
2016,02,16,02,48,4.30
2016,02,16,02,49,4.30
2016,02,16,02,50,4.30
2016,02,16,02,51,4.30
2016,02,16,02,52,4.30
2016,02,16,02,53,4.30
2016,02,16,02,54,4.30
2016,02,16,02,55,4.30
2016,02,16,02,56,4.30
2016,02,16,02,57,4.20
2016,02,16,02,58,4.20
2016,02,16,02,59,4.20
2016,02,16,03,00,4.20
2016,02,16,03,01,4.20
2016,02,16,03,02,4.20
2016,02,16,03,03,4.20
2016,02,16,03,04,4.20
2016,02,16,03,05,4.20
2016,02,16,03,06,4.20
2016,02,16,03,07,4.20
2016,02,16,03,08,4.20
2016,02,16,03,09,4.20
2016,02,16,03,10,4.20
2016,02,16,03,11,4.20
2016,02,16,03,12,4.20
2016,02,16,03,13,4.20
2016,02,16,03,14,4.20
2016,02,16,03,15,4.20
2016,02,16,03,16,4.20
2016,02,16,03,17,4.20
2016,02,16,03,18,4.20
2016,02,16,03,19,4.10
2016,02,16,03,20,4.10
2016,02,16,03,21,4.10
2016,02,16,03,22,4.10
2016,02,16,03,23,4.10
2016,02,16,03,24,4.10
2016,02,16,03,25,4.10
2016,02,16,03,26,4.10
2016,02,16,03,27,4.10
2016,02,16,03,28,4.10
2016,02,16,03,29,4.10
2016,02,16,03,30,4.10
2016,02,16,03,31,4.10
2016,02,16,03,32,4.10
2016,02,16,03,33,4.10
2016,02,16,03,34,4.10
2016,02,16,03,35,4.00
2016,02,16,03,36,4.00
2016,02,16,03,37,4.00
2016,02,16,03,38,4.00
2016,02,16,03,39,4.00
2016,02,16,03,40,4.00
2016,02,16,03,41,4.00
2016,02,16,03,42,4.00
2016,02,16,03,43,4.00
2016,02,16,03,44,3.90
2016,02,16,03,45,3.90
2016,02,16,03,46,3.90
2016,02,16,03,47,3.90
2016,02,16,03,48,3.90
2016,02,16,03,49,3.90
2016,02,16,03,50,3.90
2016,02,16,03,51,3.90
2016,02,16,03,52,3.90
2016,02,16,03,53,3.80
2016,02,16,03,54,3.80
2016,02,16,03,55,3.80
2016,02,16,03,56,3.80
2016,02,16,03,57,3.80
2016,02,16,03,58,3.80
2016,02,16,03,59,3.80
2016,02,16,04,00,3.80
2016,02,16,04,01,3.80
2016,02,16,04,02,3.80
2016,02,16,04,03,3.80
2016,02,16,04,04,3.80
2016,02,16,04,05,3.80
2016,02,16,04,06,3.80
2016,02,16,04,07,3.80
2016,02,16,04,08,3.80
2016,02,16,04,09,3.80
2016,02,16,04,10,3.80
2016,02,16,04,11,3.80
2016,02,16,04,12,3.90
2016,02,16,04,13,3.90
2016,02,16,04,14,3.80
2016,02,16,04,15,3.90
2016,02,16,04,16,3.90
2016,02,16,04,17,3.90
2016,02,16,04,18,3.90
2016,02,16,04,19,3.80
2016,02,16,04,20,3.80
2016,02,16,04,21,3.80
2016,02,16,04,22,3.90
2016,02,16,04,23,3.90
2016,02,16,04,24,3.90
2016,02,16,04,25,3.90
2016,02,16,04,26,3.90
2016,02,16,04,27,3.90
2016,02,16,04,28,3.90
2016,02,16,04,29,3.90
2016,02,16,04,30,3.90
2016,02,16,04,31,3.90
2016,02,16,04,32,3.90
2016,02,16,04,33,3.90
2016,02,16,04,34,3.90
2016,02,16,04,35,3.90
2016,02,16,04,36,3.90
2016,02,16,04,37,3.90
2016,02,16,04,38,3.90
2016,02,16,04,39,3.90
2016,02,16,04,40,3.90
2016,02,16,04,41,3.90
2016,02,16,04,42,4.00
2016,02,16,04,43,4.00
2016,02,16,04,44,4.00
2016,02,16,04,45,4.00
2016,02,16,04,46,4.00
2016,02,16,04,47,4.00
2016,02,16,04,48,4.00
2016,02,16,04,49,4.00
2016,02,16,04,50,4.00
2016,02,16,04,51,4.10
2016,02,16,04,52,4.10
2016,02,16,04,53,4.10
2016,02,16,04,54,4.00
2016,02,16,04,55,4.10
2016,02,16,04,56,4.10
2016,02,16,04,57,4.10
2016,02,16,04,58,4.10
2016,02,16,04,59,4.10
2016,02,16,05,00,4.10
2016,02,16,05,01,4.10
2016,02,16,05,02,4.10
2016,02,16,05,03,4.10
2016,02,16,05,04,4.10
2016,02,16,05,05,4.10
2016,02,16,05,06,4.10
2016,02,16,05,07,4.10
2016,02,16,05,08,4.10
2016,02,16,05,09,4.00
2016,02,16,05,10,4.00
2016,02,16,05,11,4.00
2016,02,16,05,12,4.00
2016,02,16,05,13,4.00
2016,02,16,05,14,4.00
2016,02,16,05,15,3.90
2016,02,16,05,16,3.90
2016,02,16,05,17,3.90
2016,02,16,05,18,3.90
2016,02,16,05,19,3.90
2016,02,16,05,20,3.90
2016,02,16,05,21,3.90
2016,02,16,05,22,3.90
2016,02,16,05,23,3.90
2016,02,16,05,24,3.90
2016,02,16,05,25,3.90
2016,02,16,05,26,3.90
2016,02,16,05,27,3.90
2016,02,16,05,28,3.90
2016,02,16,05,29,3.90
2016,02,16,05,30,3.90
2016,02,16,05,31,3.80
2016,02,16,05,32,3.80
2016,02,16,05,33,3.80
2016,02,16,05,34,3.80
2016,02,16,05,35,3.80
2016,02,16,05,36,3.80
2016,02,16,05,37,3.80
2016,02,16,05,38,3.80
2016,02,16,05,39,3.80
2016,02,16,05,40,3.80
2016,02,16,05,41,3.80
2016,02,16,05,42,3.80
2016,02,16,05,43,3.80
2016,02,16,05,44,3.80
2016,02,16,05,45,3.80
2016,02,16,05,46,3.70
2016,02,16,05,47,3.70
2016,02,16,05,48,3.70
2016,02,16,05,49,3.70
2016,02,16,05,50,3.70
2016,02,16,05,51,3.70
2016,02,16,05,52,3.70
2016,02,16,05,53,3.70
2016,02,16,05,54,3.70
2016,02,16,05,55,3.70
2016,02,16,05,56,3.70
2016,02,16,05,57,3.70
2016,02,16,05,58,3.60
2016,02,16,05,59,3.60
2016,02,16,06,00,3.60
2016,02,16,06,01,3.60
2016,02,16,06,02,3.60
2016,02,16,06,03,3.60
2016,02,16,06,04,3.60
2016,02,16,06,05,3.60
2016,02,16,06,06,3.60
2016,02,16,06,07,3.60
2016,02,16,06,08,3.60
2016,02,16,06,09,3.60
2016,02,16,06,10,3.60
2016,02,16,06,11,3.60
2016,02,16,06,12,3.60
2016,02,16,06,13,3.60
2016,02,16,06,14,3.60
2016,02,16,06,15,3.60
2016,02,16,06,16,3.60
2016,02,16,06,17,3.70
2016,02,16,06,18,3.70
2016,02,16,06,19,3.70
2016,02,16,06,20,3.70
2016,02,16,06,21,3.70
2016,02,16,06,22,3.80
2016,02,16,06,23,3.80
2016,02,16,06,24,3.80
2016,02,16,06,25,3.80
2016,02,16,06,26,3.80
2016,02,16,06,27,3.80
2016,02,16,06,28,3.80
2016,02,16,06,29,3.80
2016,02,16,06,30,3.90
2016,02,16,06,31,3.90
2016,02,16,06,32,3.90
2016,02,16,06,33,3.90
2016,02,16,06,34,3.90
2016,02,16,06,35,3.90
2016,02,16,06,36,3.90
2016,02,16,06,37,3.90
2016,02,16,06,38,3.90
2016,02,16,06,39,3.90
2016,02,16,06,40,3.90
2016,02,16,06,41,3.90
2016,02,16,06,42,3.90
2016,02,16,06,43,3.90
2016,02,16,06,44,3.90
2016,02,16,06,45,3.90
2016,02,16,06,46,3.90
2016,02,16,06,47,3.90
2016,02,16,06,48,3.90
2016,02,16,06,49,3.90
2016,02,16,06,50,3.90
2016,02,16,06,51,3.90
2016,02,16,06,52,3.90
2016,02,16,06,53,3.90
2016,02,16,06,54,3.90
2016,02,16,06,55,3.90
2016,02,16,06,56,3.90
2016,02,16,06,57,3.90
2016,02,16,06,58,3.90
2016,02,16,06,59,3.90
2016,02,16,07,00,3.90
2016,02,16,07,01,3.90
2016,02,16,07,02,3.90
2016,02,16,07,03,3.90
2016,02,16,07,04,3.90
2016,02,16,07,05,3.90
2016,02,16,07,06,3.90
2016,02,16,07,07,3.90
2016,02,16,07,08,3.90
2016,02,16,07,09,4.00
2016,02,16,07,10,4.00
2016,02,16,07,11,4.00
2016,02,16,07,12,4.00
2016,02,16,07,13,4.00
2016,02,16,07,14,3.90
2016,02,16,07,15,3.90
2016,02,16,07,16,3.90
2016,02,16,07,17,3.90
2016,02,16,07,18,3.90
2016,02,16,07,19,3.90
2016,02,16,07,20,3.90
2016,02,16,07,21,3.90
2016,02,16,07,22,3.90
2016,02,16,07,23,3.90
2016,02,16,07,24,3.90
2016,02,16,07,25,3.90
2016,02,16,07,26,3.90
2016,02,16,07,27,3.90
2016,02,16,07,28,3.90
2016,02,16,07,29,4.00
2016,02,16,07,30,4.00
2016,02,16,07,31,4.00
2016,02,16,07,32,4.00
2016,02,16,07,33,4.00
2016,02,16,07,34,4.00
2016,02,16,07,35,4.00
2016,02,16,07,36,4.00
2016,02,16,07,37,4.10
2016,02,16,07,38,4.10
2016,02,16,07,39,4.10
2016,02,16,07,40,4.10
2016,02,16,07,41,4.10
2016,02,16,07,42,4.10
2016,02,16,07,43,4.10
2016,02,16,07,44,4.10
2016,02,16,07,45,4.10
2016,02,16,07,46,4.10
2016,02,16,07,47,4.10
2016,02,16,07,48,4.10
2016,02,16,07,49,4.10
2016,02,16,07,50,4.10
2016,02,16,07,51,4.10
2016,02,16,07,52,4.10
2016,02,16,07,53,4.10
2016,02,16,07,54,4.10
2016,02,16,07,55,4.20
2016,02,16,07,56,4.20
2016,02,16,07,57,4.20
2016,02,16,07,58,4.20
2016,02,16,07,59,4.20
2016,02,16,08,00,4.20
2016,02,16,08,01,4.20
2016,02,16,08,02,4.20
2016,02,16,08,03,4.20
2016,02,16,08,04,4.20
2016,02,16,08,05,4.20
2016,02,16,08,06,4.20
2016,02,16,08,07,4.20
2016,02,16,08,08,4.20
2016,02,16,08,09,4.20
2016,02,16,08,10,4.20
2016,02,16,08,11,4.20
2016,02,16,08,12,4.20
2016,02,16,08,13,4.20
2016,02,16,08,14,4.20
2016,02,16,08,15,4.20
2016,02,16,08,16,4.20
2016,02,16,08,17,4.20
2016,02,16,08,18,4.20
2016,02,16,08,19,4.20
2016,02,16,08,20,4.20
2016,02,16,08,21,4.20
2016,02,16,08,22,4.20
2016,02,16,08,23,4.20
2016,02,16,08,24,4.20
2016,02,16,08,25,4.20
2016,02,16,08,26,4.20
2016,02,16,08,27,4.20
2016,02,16,08,28,4.20
2016,02,16,08,29,4.20
2016,02,16,08,30,4.20
2016,02,16,08,31,4.20
2016,02,16,08,32,4.20
2016,02,16,08,33,4.30
2016,02,16,08,34,4.30
2016,02,16,08,35,4.30
2016,02,16,08,36,4.30
2016,02,16,08,37,4.30
2016,02,16,08,38,4.30
2016,02,16,08,39,4.30
2016,02,16,08,40,4.30
2016,02,16,08,41,4.30
2016,02,16,08,42,4.30
2016,02,16,08,43,4.30
2016,02,16,08,44,4.40
2016,02,16,08,45,4.40
2016,02,16,08,46,4.40
2016,02,16,08,47,4.40
2016,02,16,08,48,4.40
2016,02,16,08,49,4.50
2016,02,16,08,50,4.50
2016,02,16,08,51,4.50
2016,02,16,08,52,4.60
2016,02,16,08,53,4.60
2016,02,16,08,54,4.60
2016,02,16,08,55,4.60
2016,02,16,08,56,4.60
2016,02,16,08,57,4.70
2016,02,16,08,58,4.70
2016,02,16,08,59,4.70
2016,02,16,09,00,4.70
2016,02,16,09,01,4.70
2016,02,16,09,02,4.80
2016,02,16,09,03,4.80
2016,02,16,09,04,4.80
2016,02,16,09,05,4.90
2016,02,16,09,06,4.90
2016,02,16,09,07,5.00
2016,02,16,09,08,5.10
2016,02,16,09,09,5.10
2016,02,16,09,10,5.20
2016,02,16,09,11,5.20
2016,02,16,09,12,5.30
2016,02,16,09,13,5.30
2016,02,16,09,14,5.30
2016,02,16,09,15,5.30
2016,02,16,09,16,5.30
2016,02,16,09,17,5.30
2016,02,16,09,18,5.30
2016,02,16,09,19,5.40
2016,02,16,09,20,5.40
2016,02,16,09,21,5.40
2016,02,16,09,22,5.40
2016,02,16,09,23,5.40
2016,02,16,09,24,5.50
2016,02,16,09,25,5.50
2016,02,16,09,26,5.50
2016,02,16,09,27,5.40
2016,02,16,09,28,5.40
2016,02,16,09,29,5.40
2016,02,16,09,30,5.40
2016,02,16,09,31,5.40
2016,02,16,09,32,5.40
2016,02,16,09,33,5.50
2016,02,16,09,34,5.50
2016,02,16,09,35,5.60
2016,02,16,09,36,5.70
2016,02,16,09,37,5.70
2016,02,16,09,38,5.70
2016,02,16,09,39,5.80
2016,02,16,09,40,5.80
2016,02,16,09,41,5.90
2016,02,16,09,42,6.00
2016,02,16,09,43,6.00
2016,02,16,09,44,6.10
2016,02,16,09,45,6.20
2016,02,16,09,46,6.20
2016,02,16,09,47,6.30
2016,02,16,09,48,6.40
2016,02,16,09,49,6.50
2016,02,16,09,50,6.50
2016,02,16,09,51,6.50
2016,02,16,09,52,6.50
2016,02,16,09,53,6.50
2016,02,16,09,54,6.40
2016,02,16,09,55,6.40
2016,02,16,09,56,6.40
2016,02,16,09,57,6.40
2016,02,16,09,58,6.40
2016,02,16,09,59,6.30
2016,02,16,10,00,6.30
2016,02,16,10,01,6.30
2016,02,16,10,02,6.20
2016,02,16,10,03,6.20
2016,02,16,10,04,6.20
2016,02,16,10,05,6.20
2016,02,16,10,06,6.20
2016,02,16,10,07,6.20
2016,02,16,10,08,6.30
2016,02,16,10,09,6.30
2016,02,16,10,10,6.40
2016,02,16,10,11,6.40
2016,02,16,10,12,6.50
2016,02,16,10,13,6.60
2016,02,16,10,14,6.70
2016,02,16,10,15,6.70
2016,02,16,10,16,6.80
2016,02,16,10,17,6.80
2016,02,16,10,18,6.80
2016,02,16,10,19,6.90
2016,02,16,10,20,6.90
2016,02,16,10,21,7.00
2016,02,16,10,22,7.00
2016,02,16,10,23,7.10
2016,02,16,10,24,7.10
2016,02,16,10,25,7.10
2016,02,16,10,26,7.10
2016,02,16,10,27,7.00
2016,02,16,10,28,7.00
2016,02,16,10,29,6.90
2016,02,16,10,30,6.90
2016,02,16,10,31,6.90
2016,02,16,10,32,6.90
2016,02,16,10,33,6.90
2016,02,16,10,34,6.80
2016,02,16,10,35,6.90
2016,02,16,10,36,6.90
2016,02,16,10,37,6.90
2016,02,16,10,38,6.90
2016,02,16,10,39,6.90
2016,02,16,10,40,6.90
2016,02,16,10,41,6.90
2016,02,16,10,42,6.90
2016,02,16,10,43,6.90
2016,02,16,10,44,6.90
2016,02,16,10,45,6.90
2016,02,16,10,46,6.90
2016,02,16,10,47,7.00
2016,02,16,10,48,7.00
2016,02,16,10,49,7.00
2016,02,16,10,50,7.10
2016,02,16,10,51,7.10
2016,02,16,10,52,7.10
2016,02,16,10,53,7.20
2016,02,16,10,54,7.20
2016,02,16,10,55,7.30
2016,02,16,10,56,7.30
2016,02,16,10,57,7.40
2016,02,16,10,58,7.40
2016,02,16,10,59,7.40
2016,02,16,11,00,7.50
2016,02,16,11,01,7.50
2016,02,16,11,02,7.50
2016,02,16,11,03,7.60
2016,02,16,11,04,7.60
2016,02,16,11,05,7.60
2016,02,16,11,06,7.60
2016,02,16,11,07,7.60
2016,02,16,11,08,7.60
2016,02,16,11,09,7.70
2016,02,16,11,10,7.70
2016,02,16,11,11,7.80
2016,02,16,11,12,7.90
2016,02,16,11,13,7.90
2016,02,16,11,14,8.00
2016,02,16,11,15,8.00
2016,02,16,11,16,8.10
2016,02,16,11,17,8.10
2016,02,16,11,18,8.20
2016,02,16,11,19,8.20
2016,02,16,11,20,8.30
2016,02,16,11,21,8.40
2016,02,16,11,22,8.50
2016,02,16,11,23,8.50
2016,02,16,11,24,8.50
2016,02,16,11,25,8.60
2016,02,16,11,26,8.60
2016,02,16,11,27,8.60
2016,02,16,11,28,8.60
2016,02,16,11,29,8.60
2016,02,16,11,30,8.60
2016,02,16,11,31,8.60
2016,02,16,11,32,8.50
2016,02,16,11,33,8.50
2016,02,16,11,34,8.40
2016,02,16,11,35,8.40
2016,02,16,11,36,8.30
2016,02,16,11,37,8.20
2016,02,16,11,38,8.20
2016,02,16,11,39,8.20
2016,02,16,11,40,8.20
2016,02,16,11,41,8.10
2016,02,16,11,42,8.10
2016,02,16,11,43,8.10
2016,02,16,11,44,8.00
2016,02,16,11,45,8.00
2016,02,16,11,46,8.00
2016,02,16,11,47,8.00
2016,02,16,11,48,8.00
2016,02,16,11,49,8.00
2016,02,16,11,50,8.00
2016,02,16,11,51,8.00
2016,02,16,11,52,8.00
2016,02,16,11,53,8.00
2016,02,16,11,54,8.10
2016,02,16,11,55,8.10
2016,02,16,11,56,8.10
2016,02,16,11,57,8.10
2016,02,16,11,58,8.20
2016,02,16,11,59,8.20
2016,02,16,12,00,8.30
2016,02,16,12,01,8.40
2016,02,16,12,02,8.50
2016,02,16,12,03,8.60
2016,02,16,12,04,8.70
2016,02,16,12,05,8.70
2016,02,16,12,06,8.80
2016,02,16,12,07,8.80
2016,02,16,12,08,8.80
2016,02,16,12,09,8.90
2016,02,16,12,10,8.90
2016,02,16,12,11,9.00
2016,02,16,12,12,9.10
2016,02,16,12,13,9.20
2016,02,16,12,14,9.20
2016,02,16,12,15,9.30
2016,02,16,12,16,9.30
2016,02,16,12,17,9.30
2016,02,16,12,18,9.30
2016,02,16,12,19,9.30
2016,02,16,12,20,9.30
2016,02,16,12,21,9.40
2016,02,16,12,22,9.50
2016,02,16,12,23,9.50
2016,02,16,12,24,9.50
2016,02,16,12,25,9.50
2016,02,16,12,26,9.40
2016,02,16,12,27,9.40
2016,02,16,12,28,9.40
2016,02,16,12,29,9.30
2016,02,16,12,30,9.30
2016,02,16,12,31,9.30
2016,02,16,12,32,9.20
2016,02,16,12,33,9.20
2016,02,16,12,34,9.20
2016,02,16,12,35,9.20
2016,02,16,12,36,9.10
2016,02,16,12,37,9.10
2016,02,16,12,38,9.10
2016,02,16,12,39,9.10
2016,02,16,12,40,9.10
2016,02,16,12,41,9.10
2016,02,16,12,42,9.10
2016,02,16,12,43,9.10
2016,02,16,12,44,9.10
2016,02,16,12,45,9.20
2016,02,16,12,46,9.20
2016,02,16,12,47,9.20
2016,02,16,12,48,9.20
2016,02,16,12,49,9.20
2016,02,16,12,50,9.20
2016,02,16,12,51,9.20
2016,02,16,12,52,9.30
2016,02,16,12,53,9.30
2016,02,16,12,54,9.30
2016,02,16,12,55,9.40
2016,02,16,12,56,9.40
2016,02,16,12,57,9.50
2016,02,16,12,58,9.50
2016,02,16,12,59,9.50
2016,02,16,13,00,9.50
2016,02,16,13,01,9.50
2016,02,16,13,02,9.60
2016,02,16,13,03,9.60
2016,02,16,13,04,9.60
2016,02,16,13,05,9.60
2016,02,16,13,06,9.60
2016,02,16,13,07,9.60
2016,02,16,13,08,9.70
2016,02,16,13,09,9.70
2016,02,16,13,10,9.70
2016,02,16,13,11,9.80
2016,02,16,13,12,9.80
2016,02,16,13,13,9.90
2016,02,16,13,14,9.90
2016,02,16,13,15,9.90
2016,02,16,13,16,10.00
2016,02,16,13,17,10.00
2016,02,16,13,18,10.10
2016,02,16,13,19,10.10
2016,02,16,13,20,10.10
2016,02,16,13,21,10.10
2016,02,16,13,22,10.10
2016,02,16,13,23,10.10
2016,02,16,13,24,10.10
2016,02,16,13,25,10.20
2016,02,16,13,26,10.20
2016,02,16,13,27,10.30
2016,02,16,13,28,10.30
2016,02,16,13,29,10.30
2016,02,16,13,30,10.30
2016,02,16,13,31,10.30
2016,02,16,13,32,10.30
2016,02,16,13,33,10.30
2016,02,16,13,34,10.30
2016,02,16,13,35,10.20
2016,02,16,13,36,10.20
2016,02,16,13,37,10.20
2016,02,16,13,38,10.20
2016,02,16,13,39,10.10
2016,02,16,13,40,10.10
2016,02,16,13,41,10.20
2016,02,16,13,42,10.10
2016,02,16,13,43,10.20
2016,02,16,13,44,10.20
2016,02,16,13,45,10.20
2016,02,16,13,46,10.20
2016,02,16,13,47,10.20
2016,02,16,13,48,10.20
2016,02,16,13,49,10.10
2016,02,16,13,50,10.10
2016,02,16,13,51,10.10
2016,02,16,13,52,10.00
2016,02,16,13,53,9.90
2016,02,16,13,54,9.90
2016,02,16,13,55,9.90
2016,02,16,13,56,9.80
2016,02,16,13,57,9.80
2016,02,16,13,58,9.80
2016,02,16,13,59,9.80
2016,02,16,14,00,9.70
2016,02,16,14,01,9.70
2016,02,16,14,02,9.60
2016,02,16,14,03,9.60
2016,02,16,14,04,9.60
2016,02,16,14,05,9.50
2016,02,16,14,06,9.50
2016,02,16,14,07,9.50
2016,02,16,14,08,9.50
2016,02,16,14,09,9.50
2016,02,16,14,10,9.40
2016,02,16,14,11,9.40
2016,02,16,14,12,9.40
2016,02,16,14,13,9.40
2016,02,16,14,14,9.40
2016,02,16,14,15,9.40
2016,02,16,14,16,9.40
2016,02,16,14,17,9.40
2016,02,16,14,18,9.30
2016,02,16,14,19,9.30
2016,02,16,14,20,9.30
2016,02,16,14,21,9.30
2016,02,16,14,22,9.30
2016,02,16,14,23,9.30
2016,02,16,14,24,9.30
2016,02,16,14,25,9.40
2016,02,16,14,26,9.40
2016,02,16,14,27,9.40
2016,02,16,14,28,9.40
2016,02,16,14,29,9.30
2016,02,16,14,30,9.30
2016,02,16,14,31,9.30
2016,02,16,14,32,9.30
2016,02,16,14,33,9.40
2016,02,16,14,34,9.40
2016,02,16,14,35,9.40
2016,02,16,14,36,9.40
2016,02,16,14,37,9.40
2016,02,16,14,38,9.40
2016,02,16,14,39,9.40
2016,02,16,14,40,9.40
2016,02,16,14,41,9.30
2016,02,16,14,42,9.30
2016,02,16,14,43,9.30
2016,02,16,14,44,9.30
2016,02,16,14,45,9.30
2016,02,16,14,46,9.20
2016,02,16,14,47,9.20
2016,02,16,14,48,9.20
2016,02,16,14,49,9.20
2016,02,16,14,50,9.20
2016,02,16,14,51,9.10
2016,02,16,14,52,9.10
2016,02,16,14,53,9.10
2016,02,16,14,54,9.10
2016,02,16,14,55,9.00
2016,02,16,14,56,9.00
2016,02,16,14,57,9.00
2016,02,16,14,58,8.90
2016,02,16,14,59,8.90
2016,02,16,15,00,8.90
2016,02,16,15,01,8.90
2016,02,16,15,02,8.90
2016,02,16,15,03,8.90
2016,02,16,15,04,8.90
2016,02,16,15,05,8.90
2016,02,16,15,06,8.90
2016,02,16,15,07,8.90
2016,02,16,15,08,8.90
2016,02,16,15,09,9.00
2016,02,16,15,10,9.00
2016,02,16,15,11,9.00
2016,02,16,15,12,9.00
2016,02,16,15,13,9.00
2016,02,16,15,14,9.00
2016,02,16,15,15,8.90
2016,02,16,15,16,8.90
2016,02,16,15,17,8.90
2016,02,16,15,18,8.90
2016,02,16,15,19,8.90
2016,02,16,15,20,8.90
2016,02,16,15,21,8.90
2016,02,16,15,22,8.80
2016,02,16,15,23,8.80
2016,02,16,15,24,8.80
2016,02,16,15,25,8.80
2016,02,16,15,26,8.80
2016,02,16,15,27,8.80
2016,02,16,15,28,8.90
2016,02,16,15,29,8.90
2016,02,16,15,30,8.90
2016,02,16,15,31,8.90
2016,02,16,15,32,8.90
2016,02,16,15,33,8.90
2016,02,16,15,34,8.90
2016,02,16,15,35,8.80
2016,02,16,15,36,8.90
2016,02,16,15,37,8.90
2016,02,16,15,38,8.90
2016,02,16,15,39,8.90
2016,02,16,15,40,9.00
2016,02,16,15,41,9.00
2016,02,16,15,42,9.10
2016,02,16,15,43,9.10
2016,02,16,15,44,9.20
2016,02,16,15,45,9.20
2016,02,16,15,46,9.20
2016,02,16,15,47,9.20
2016,02,16,15,48,9.20
2016,02,16,15,49,9.20
2016,02,16,15,50,9.20
2016,02,16,15,51,9.20
2016,02,16,15,52,9.20
2016,02,16,15,53,9.20
2016,02,16,15,54,9.20
2016,02,16,15,55,9.20
2016,02,16,15,56,9.20
2016,02,16,15,57,9.20
2016,02,16,15,58,9.20
2016,02,16,15,59,9.20
2016,02,16,16,00,9.20
2016,02,16,16,01,9.20
2016,02,16,16,02,9.20
2016,02,16,16,03,9.20
2016,02,16,16,04,9.20
2016,02,16,16,05,9.20
2016,02,16,16,06,9.20
2016,02,16,16,07,9.20
2016,02,16,16,08,9.10
2016,02,16,16,09,9.10
2016,02,16,16,10,9.10
2016,02,16,16,11,9.00
2016,02,16,16,12,9.00
2016,02,16,16,13,8.90
2016,02,16,16,14,8.90
2016,02,16,16,15,8.90
2016,02,16,16,16,8.80
2016,02,16,16,17,8.80
2016,02,16,16,18,8.80
2016,02,16,16,19,8.80
2016,02,16,16,20,8.70
2016,02,16,16,21,8.70
2016,02,16,16,22,8.70
2016,02,16,16,23,8.70
2016,02,16,16,24,8.70
2016,02,16,16,25,8.70
2016,02,16,16,26,8.60
2016,02,16,16,27,8.60
2016,02,16,16,28,8.60
2016,02,16,16,29,8.60
2016,02,16,16,30,8.60
2016,02,16,16,31,8.60
2016,02,16,16,32,8.60
2016,02,16,16,33,8.60
2016,02,16,16,34,8.60
2016,02,16,16,35,8.60
2016,02,16,16,36,8.50
2016,02,16,16,37,8.50
2016,02,16,16,38,8.50
2016,02,16,16,39,8.50
2016,02,16,16,40,8.50
2016,02,16,16,41,8.50
2016,02,16,16,42,8.40
2016,02,16,16,43,8.40
2016,02,16,16,44,8.30
2016,02,16,16,45,8.30
2016,02,16,16,46,8.20
2016,02,16,16,47,8.20
2016,02,16,16,48,8.20
2016,02,16,16,49,8.10
2016,02,16,16,50,8.10
2016,02,16,16,51,8.10
2016,02,16,16,52,8.10
2016,02,16,16,53,8.10
2016,02,16,16,54,8.00
2016,02,16,16,55,8.00
2016,02,16,16,56,7.90
2016,02,16,16,57,7.90
2016,02,16,16,58,7.90
2016,02,16,16,59,7.90
2016,02,16,17,00,7.80
2016,02,16,17,01,7.80
2016,02,16,17,02,7.80
2016,02,16,17,03,7.80
2016,02,16,17,04,7.70
2016,02,16,17,05,7.70
2016,02,16,17,06,7.70
2016,02,16,17,07,7.70
2016,02,16,17,08,7.60
2016,02,16,17,09,7.60
2016,02,16,17,10,7.60
2016,02,16,17,11,7.60
2016,02,16,17,12,7.60
2016,02,16,17,13,7.50
2016,02,16,17,14,7.50
2016,02,16,17,15,7.50
2016,02,16,17,16,7.50
2016,02,16,17,17,7.40
2016,02,16,17,18,7.40
2016,02,16,17,19,7.40
2016,02,16,17,20,7.40
2016,02,16,17,21,7.40
2016,02,16,17,22,7.40
2016,02,16,17,23,7.30
2016,02,16,17,24,7.30
2016,02,16,17,25,7.30
2016,02,16,17,26,7.30
2016,02,16,17,27,7.30
2016,02,16,17,28,7.30
2016,02,16,17,29,7.30
2016,02,16,17,30,7.30
2016,02,16,17,31,7.20
2016,02,16,17,32,7.20
2016,02,16,17,33,7.20
2016,02,16,17,34,7.20
2016,02,16,17,35,7.10
2016,02,16,17,36,7.10
2016,02,16,17,37,7.10
2016,02,16,17,38,7.00
2016,02,16,17,39,7.00
2016,02,16,17,40,7.00
2016,02,16,17,41,6.90
2016,02,16,17,42,6.90
2016,02,16,17,43,6.90
2016,02,16,17,44,6.90
2016,02,16,17,45,6.80
2016,02,16,17,46,6.80
2016,02,16,17,47,6.80
2016,02,16,17,48,6.80
2016,02,16,17,49,6.80
2016,02,16,17,50,6.80
2016,02,16,17,51,6.80
2016,02,16,17,52,6.80
2016,02,16,17,53,6.80
2016,02,16,17,54,6.70
2016,02,16,17,55,6.70
2016,02,16,17,56,6.70
2016,02,16,17,57,6.70
2016,02,16,17,58,6.70
2016,02,16,17,59,6.70
2016,02,16,18,00,6.70
2016,02,16,18,01,6.70
2016,02,16,18,02,6.60
2016,02,16,18,03,6.60
2016,02,16,18,04,6.60
2016,02,16,18,05,6.50